[[{"header":{"parameterUnit":"m.s-1","parameterCategory":1,"la1":30.2991,"la2":30.254,"lo1":-89.0895,"lo2":-89.0444,"dy":0.0017,"dx":0.0017,"nx":28,"ny":28,"refTime":"2025-05-20T21:00:00:Z","depth":0,"parameterNumber":2,"parameterNumberName":"U-component_of_WINDS"},"data":[0,0,0,0,0,0,0,0,0,0,0,0,0,0,0,0,0,0,0,0,0,0,0,0,0,0,0,0,0,0,0,0,0,0,0,0,0,0,0,0,0,0,0,0,0,0,0,0,0,0,0,0,0,0,0,0,0,0,-1.9104,-1.9105,0,-1.9189,-1.919,-1.9191,-1.917,-1.9169,-1.9167,-1.9166,-1.9254,-1.9258,-1.9261,0,0,0,0,0,0,0,0,0,0,0,0,0,-1.8929,-1.8932,-1.9104,-1.9105,-1.9106,-1.9189,-1.919,-1.9191,-1.9171,-1.9169,-1.9167,-1.9165,-1.9252,-1.9257,-1.9262,0,0,0,0,0,0,0,0,0,0,0,0,0,-1.9008,-1.8933,-1.9104,-1.9106,-1.9107,-1.9188,-1.919,-1.9191,-1.9171,-1.9169,-1.9166,-1.9164,-1.9251,-1.9257,-1.9262,-1.9347,0,0,-1.928,-1.9283,0,0,0,0,0,0,0,0,-1.9004,-1.9015,-1.9105,-1.9106,-1.9108,-1.9167,-1.916,-1.9243,-1.9172,-1.9147,-1.9166,-1.9163,-1.9227,-1.9234,-1.9256,-1.9351,-1.9355,-1.9281,-1.9284,-1.9287,-1.9288,0,0,0,0,0,0,0,-1.8998,-1.9011,-1.9138,-1.9106,-1.9108,-1.9104,-1.9113,-1.9176,-1.92,-1.9149,-1.9148,-1.9158,-1.9227,-1.925,-1.9258,-1.9356,-1.928,-1.9286,-1.9289,-1.9291,-1.9527,-1.953,0,0,0,0,0,0,-1.8991,-1.9007,-1.9135,-1.914,-1.9049,-1.9109,-1.9119,-1.915,-1.9199,-1.9204,-1.916,-1.9157,-1.9241,-1.9251,-1.9261,-1.9363,-1.9286,-1.9292,-1.9295,-1.9524,-1.9527,-1.953,0,0,0,0,0,0,-1.8988,-1.9003,-1.9132,-1.9073,-1.9089,-1.9115,-1.915,-1.9153,-1.9176,-1.9207,-1.9211,-1.9179,-1.924,-1.9252,-1.9326,-1.9366,-1.9295,-1.93,-1.9521,-1.9525,-1.9529,-1.9569,0,0,0,0,0,0,-1.8983,-1.9002,-1.9033,-1.9074,-1.9092,-1.9194,-1.9153,-1.9156,-1.9186,-1.9182,-1.9226,-1.9231,-1.9239,-1.9317,-1.9332,-1.9373,-1.9304,-1.9517,-1.9523,-1.9528,-1.9564,-1.9574,-1.9582,0,0,0,0,0,-1.8976,-1.9041,-1.9035,-1.9051,-1.9132,-1.9197,-1.9207,-1.9215,-1.9189,-1.9221,-1.9242,-1.923,-1.936,-1.9325,-1.9341,-1.9384,-1.9515,-1.9521,-1.9527,-1.956,-1.9572,-1.9582,0,0,0,0,0,0,-1.9004,-1.9046,-1.904,-1.9119,-1.9155,-1.9193,-1.9234,-1.9227,-1.9271,-1.9266,-1.9274,-1.9284,-1.9359,-1.9379,-1.934,-1.947,-1.9434,-1.9443,-1.9453,-1.9465,-1.9473,-1.9466,-1.9309,0,0,0,0,0,-1.902,-1.9068,-1.9103,-1.917,-1.9188,-1.9208,-1.9236,-1.9239,-1.9276,-1.9291,-1.9317,-1.9354,-1.9403,-1.9435,-1.9482,-1.9568,-1.9577,-1.9606,-1.9615,-1.9622,-1.963,-1.9677,-1.969,-1.9551,-1.9551,-1.9551,0,0,-1.9052,-1.9081,-1.9111,-1.9176,-1.9203,-1.9254,-1.922,-1.9275,-1.9313,-1.93,-1.937,-1.9391,-1.9433,-1.9513,-1.9549,-1.9532,-1.9671,-1.963,-1.9636,-1.9639,-1.9685,-1.9698,-1.971,-1.9555,-1.9555,-1.9554,0,0,-1.9136,-1.9163,-1.9222,-1.9251,-1.9293,-1.9306,-1.9321,-1.9361,-1.9374,-1.9445,-1.9437,-1.9483,-1.9567,-1.9598,-1.9624,-1.9723,-1.9714,-1.9739,-1.9785,-1.9832,-1.9843,-1.9852,-1.9887,-1.99,-1.9747,-1.9747,-1.9747,0,-1.917,-1.9245,-1.9253,-1.9309,-1.9338,-1.9329,-1.9389,-1.9417,-1.9473,-1.9494,-1.9474,-1.9581,-1.9609,-1.9696,-1.972,-1.9743,-1.976,-1.9732,-1.984,-1.985,-1.9859,-1.9893,-1.9906,-1.975,-1.9749,-1.9749,-1.9749,0,-1.9286,-1.9338,-1.9381,-1.9435,-1.9469,-1.9527,-1.9545,-1.9579,-1.958,-1.9596,-1.967,-1.9703,-1.9757,-1.9779,-1.978,-1.9867,-1.9855,-1.9838,-1.9802,-1.9875,-1.9907,-1.992,-1.9753,-1.9752,-1.9752,-1.9751,0,0,-1.9387,-1.9446,-1.9461,-1.9486,-1.9534,-1.9575,-1.9634,-1.9686,-1.9715,-1.9756,-1.9805,-1.9878,-1.9863,-1.9894,-1.9899,-1.994,-2.0016,-1.9918,-1.9919,-1.9934,-2.0114,-2.0125,-2.014,-2.0011,-2.0014,-2.0016,-2.011,0,-1.9474,-1.9576,-1.9586,-1.9677,-1.9726,-1.972,-1.9771,-1.9807,-1.9824,-1.9869,-1.9889,-1.9941,-1.9917,-1.9936,-1.9976,-1.9998,-2.0052,-1.9992,-2.0057,-2.006,-2.0045,-2.0156,-2.0168,-2.0255,-2.0123,-2.0125,-2.0126,0,-1.9589,-1.9632,-1.9728,-1.977,-1.9791,-1.9837,-1.9887,-1.993,-1.9971,-1.9981,-2.0016,-2.0017,-2.0078,-2.0042,-2.0127,-2.0086,-2.0114,-2.013,-2.0133,-2.0138,-2.0096,-2.0163,-2.0283,-2.0296,-2.0146,-2.0144,-2.0143,0,-1.9652,-1.9734,-1.9803,-1.9824,-1.9875,-1.9908,-1.9931,-1.9969,-2.0001,-2.0045,-2.0066,-2.0118,-2.0145,-2.0186,-2.0201,-2.0173,-2.0286,-2.0251,-2.0296,-2.0296,-2.0318,-2.0316,-2.0443,-2.0339,-2.0339,-2.0339,-2.0339,0,-1.9747,-1.9806,-1.9832,-1.9873,-1.994,-1.9952,-2.0018,-2.004,-2.0075,-2.0121,-2.0121,-2.0165,-2.0183,-2.023,-2.0243,-2.0312,-2.0325,-2.0335,-2.0338,-2.0334,-2.0333,-2.0351,-2.0345,-2.0343,-2.0342,-2.0341,-2.034,0,-1.9827,-1.9847,-1.9921,-1.9964,-1.9976,-2.0023,-2.006,-2.0101,-2.012,-2.0179,-2.0194,-2.0223,-2.0279,-2.0299,-2.0367,-2.0376,-2.0456,-2.0454,-2.0441,-2.0441,-2.0486,-2.0481,-2.0627,-2.0647,-2.0532,-2.0533,-2.0534,0,-1.9885,-1.9931,-1.9979,-2.001,-2.0034,-2.0084,-2.0117,-2.0132,-2.0166,-2.0217,-2.0253,-2.0309,-2.0354,-2.0445,-2.0472,-2.0525,-2.0523,-2.0572,-2.0531,-2.0527,-2.0523,-2.0519,-2.0524,-2.0578,-2.0579,-2.058,-2.0581,0,-1.9987,-1.9995,-2.0041,-2.0092,-2.0131,-2.0172,-2.0211,-2.0237,-2.0258,-2.0297,-2.0354,-2.039,-2.046,-2.0516,-2.0571,-2.0596,-2.0592,-2.0594,-2.0607,-2.0603,-2.0593,-2.0598,-2.046,-2.059,-2.0589,-2.0588,-2.0588,-2.0588,-2.0057,-2.0097,-2.0137,-2.019,-2.0221,-2.0259,-2.03,-2.0324,-2.0372,-2.0429,-2.0437,-2.0498,-2.0541,-2.0614,-2.0642,-2.0691,-2.0678,-2.0697,-2.0702,-2.0706,-2.0708,-2.0588,-2.0701,-2.0701,-2.0701,-2.0701,-2.0701,0,-2.0157,-2.0183,-2.0232,-2.0287,-2.0329,-2.0323,-2.0367,-2.0402,-2.0457,-2.0496,-2.0541,-2.0608,-2.0663,-2.0696,-2.0751,-2.0785,-2.0785,-2.0799,-2.0795,-2.0801,-2.0718,-2.07,-2.0798,-2.0798,-2.0798,-2.0798,-2.0798,-2.0798,-2.0214,-2.0281,-2.0295,-2.0379,-2.0405,-2.0465,-2.0491,-2.0526,-2.0558,-2.0632,-2.0678,-2.0699,-2.0737,-2.0795,-2.0846,-2.0854,-2.0874,-2.0889,-2.0896,-2.0817,-2.0807,-2.0797,-2.0781,-2.0894,-2.0894,-2.0976,-2.0976,-2.0977]},{"header":{"parameterUnit":"m.s-1","parameterCategory":1,"la1":30.2991,"la2":30.254,"lo1":-89.0895,"lo2":-89.0444,"dy":0.0017,"dx":0.0017,"nx":28,"ny":28,"refTime":"2025-05-20T21:00:00:Z","depth":0,"parameterNumber":3,"parameterNumberName":"V-component_of_WINDS"},"data":[0,0,0,0,0,0,0,0,0,0,0,0,0,0,0,0,0,0,0,0,0,0,0,0,0,0,0,0,0,0,0,0,0,0,0,0,0,0,0,0,0,0,0,0,0,0,0,0,0,0,0,0,0,0,0,0,0,0,-0.7062,-0.7062,0,-0.7081,-0.7081,-0.7081,-0.7126,-0.7127,-0.7128,-0.7129,-0.7146,-0.7145,-0.7145,0,0,0,0,0,0,0,0,0,0,0,0,0,-0.7062,-0.7062,-0.7062,-0.7062,-0.7062,-0.7081,-0.7081,-0.7081,-0.7126,-0.7127,-0.7128,-0.7129,-0.7146,-0.7145,-0.7145,0,0,0,0,0,0,0,0,0,0,0,0,0,-0.7069,-0.7062,-0.7062,-0.7087,-0.7089,-0.7081,-0.7081,-0.7081,-0.7125,-0.7127,-0.7128,-0.7129,-0.7146,-0.7145,-0.7145,-0.7113,0,0,-0.7143,-0.7142,0,0,0,0,0,0,0,0,-0.7069,-0.7069,-0.7083,-0.7085,-0.7088,-0.7102,-0.7087,-0.7092,-0.7125,-0.7112,-0.7129,-0.713,-0.713,-0.7131,-0.7131,-0.7113,-0.7114,-0.7143,-0.7142,-0.7142,-0.7142,0,0,0,0,0,0,0,-0.7068,-0.7069,-0.7069,-0.7083,-0.7086,-0.7096,-0.7099,-0.7088,-0.7113,-0.7113,-0.7116,-0.7118,-0.7131,-0.7132,-0.7132,-0.7114,-0.7143,-0.7142,-0.7142,-0.7141,-0.707,-0.7068,0,0,0,0,0,0,-0.7065,-0.7068,-0.7069,-0.707,-0.7082,-0.7095,-0.7098,-0.7096,-0.7113,-0.7117,-0.7117,-0.712,-0.7132,-0.7132,-0.7132,-0.7095,-0.7142,-0.7141,-0.7141,-0.7071,-0.707,-0.7068,0,0,0,0,0,0,-0.7064,-0.7064,-0.7068,-0.707,-0.7071,-0.7094,-0.7091,-0.7096,-0.7096,-0.7116,-0.712,-0.7112,-0.7133,-0.7133,-0.7117,-0.7096,-0.7141,-0.7141,-0.7073,-0.7071,-0.7069,-0.7021,0,0,0,0,0,0,-0.7064,-0.7064,-0.7053,-0.7069,-0.7071,-0.7053,-0.709,-0.7095,-0.7095,-0.7099,-0.7113,-0.7116,-0.7134,-0.7118,-0.7116,-0.7096,-0.714,-0.7075,-0.7072,-0.7069,-0.7024,-0.7017,-0.7011,0,0,0,0,0,-0.7064,-0.7038,-0.7052,-0.7052,-0.7057,-0.7052,-0.7052,-0.7074,-0.7093,-0.7082,-0.7094,-0.7116,-0.7099,-0.7116,-0.7115,-0.7094,-0.7076,-0.7073,-0.707,-0.7027,-0.7019,-0.7011,0,0,0,0,0,0,-0.7018,-0.7041,-0.7056,-0.7035,-0.7041,-0.7059,-0.7045,-0.7064,-0.7064,-0.7068,-0.7095,-0.7097,-0.7077,-0.7084,-0.7102,-0.7063,-0.7091,-0.7087,-0.7059,-0.7051,-0.7045,-0.7043,-0.7139,0,0,0,0,0,-0.7006,-0.7,-0.702,-0.6999,-0.7002,-0.7023,-0.7021,-0.7037,-0.7044,-0.7047,-0.7058,-0.7063,-0.7059,-0.7056,-0.7053,-0.7026,-0.7028,-0.7011,-0.7004,-0.6999,-0.6995,-0.698,-0.6972,-0.7057,-0.7057,-0.7057,0,0,-0.698,-0.6991,-0.6986,-0.699,-0.6997,-0.6989,-0.7025,-0.7015,-0.701,-0.7045,-0.703,-0.7038,-0.7046,-0.7024,-0.7014,-0.7029,-0.6972,-0.6994,-0.699,-0.6989,-0.6975,-0.6967,-0.696,-0.7054,-0.7055,-0.7055,0,0,-0.6928,-0.6937,-0.6921,-0.6926,-0.6936,-0.695,-0.6946,-0.6961,-0.6968,-0.6953,-0.6979,-0.6972,-0.6965,-0.6969,-0.697,-0.6919,-0.6938,-0.6917,-0.6882,-0.6867,-0.686,-0.6855,-0.6835,-0.6828,-0.6913,-0.6913,-0.6913,0,-0.6895,-0.6885,-0.6909,-0.6898,-0.6899,-0.6931,-0.6913,-0.6918,-0.6925,-0.6924,-0.6941,-0.6931,-0.6939,-0.6917,-0.6904,-0.6905,-0.69,-0.6915,-0.686,-0.6854,-0.6849,-0.6831,-0.6824,-0.691,-0.6911,-0.6911,-0.6911,0,-0.6843,-0.6836,-0.6821,-0.6828,-0.6827,-0.6813,-0.6834,-0.6829,-0.6845,-0.6857,-0.6841,-0.6851,-0.685,-0.6847,-0.6862,-0.6827,-0.6835,-0.6855,-0.6884,-0.6838,-0.6821,-0.6814,-0.6906,-0.6907,-0.6908,-0.6909,0,0,-0.6764,-0.6784,-0.6778,-0.6781,-0.6793,-0.6788,-0.6774,-0.6774,-0.6769,-0.6773,-0.6762,-0.6754,-0.6772,-0.6773,-0.6789,-0.6776,-0.6734,-0.6798,-0.6798,-0.6785,-0.6694,-0.6679,-0.6671,-0.6747,-0.6746,-0.6745,-0.6693,0,-0.6715,-0.6694,-0.6715,-0.6689,-0.6682,-0.6712,-0.67,-0.6706,-0.6716,-0.6711,-0.6722,-0.6716,-0.6741,-0.6742,-0.673,-0.6741,-0.6716,-0.6745,-0.6735,-0.6735,-0.6732,-0.6662,-0.6646,-0.6597,-0.6687,-0.6686,-0.6685,0,-0.6656,-0.6657,-0.6631,-0.6644,-0.6642,-0.6631,-0.6631,-0.6626,-0.6633,-0.6641,-0.6642,-0.6661,-0.6647,-0.6675,-0.6657,-0.6676,-0.6673,-0.6678,-0.6677,-0.6676,-0.6707,-0.6659,-0.6582,-0.6575,-0.6675,-0.6676,-0.6677,0,-0.66,-0.6595,-0.6578,-0.658,-0.6595,-0.6586,-0.6592,-0.66,-0.6598,-0.6598,-0.6597,-0.6596,-0.6595,-0.6592,-0.661,-0.6629,-0.6589,-0.6618,-0.6594,-0.6594,-0.6584,-0.6585,-0.6505,-0.6583,-0.6583,-0.6583,-0.6583,0,-0.6543,-0.6525,-0.6553,-0.6543,-0.6524,-0.6547,-0.6527,-0.6536,-0.6542,-0.6533,-0.6559,-0.655,-0.6574,-0.6567,-0.6581,-0.6562,-0.6562,-0.6567,-0.6571,-0.6565,-0.6564,-0.6563,-0.6567,-0.6581,-0.6582,-0.6582,-0.6582,0,-0.6477,-0.6495,-0.6479,-0.6494,-0.6497,-0.6483,-0.6495,-0.6486,-0.6498,-0.6486,-0.6484,-0.6503,-0.6496,-0.6513,-0.6509,-0.6518,-0.6491,-0.6501,-0.6489,-0.6492,-0.6467,-0.6468,-0.6384,-0.6373,-0.6458,-0.6457,-0.6456,0,-0.6439,-0.6427,-0.644,-0.6437,-0.6441,-0.6434,-0.6433,-0.6455,-0.6451,-0.6457,-0.6446,-0.6442,-0.6439,-0.6426,-0.6438,-0.6435,-0.6444,-0.6414,-0.6444,-0.6437,-0.6443,-0.6443,-0.6441,-0.6408,-0.6407,-0.6406,-0.6406,0,-0.6371,-0.638,-0.6377,-0.6376,-0.6373,-0.6374,-0.6376,-0.6371,-0.6395,-0.6389,-0.6383,-0.6381,-0.6376,-0.637,-0.6369,-0.6374,-0.6393,-0.6396,-0.6391,-0.6384,-0.6377,-0.638,-0.6472,-0.6398,-0.6399,-0.64,-0.64,-0.64,-0.6318,-0.6307,-0.6315,-0.631,-0.6314,-0.6315,-0.6307,-0.6318,-0.6313,-0.6311,-0.6324,-0.6314,-0.6319,-0.632,-0.6323,-0.6314,-0.6328,-0.6319,-0.6317,-0.6315,-0.631,-0.6379,-0.6314,-0.6315,-0.6315,-0.6315,-0.6315,0,-0.6249,-0.6256,-0.6251,-0.6253,-0.6249,-0.6268,-0.6271,-0.6266,-0.6257,-0.6261,-0.6258,-0.6249,-0.6244,-0.6255,-0.6251,-0.6242,-0.6251,-0.624,-0.6241,-0.6242,-0.6299,-0.6304,-0.6233,-0.6233,-0.6234,-0.6234,-0.6234,-0.6234,-0.6214,-0.6197,-0.6207,-0.6192,-0.6198,-0.6189,-0.6189,-0.619,-0.6193,-0.6182,-0.6178,-0.6186,-0.6192,-0.6188,-0.6183,-0.6187,-0.6184,-0.617,-0.6176,-0.623,-0.6238,-0.6245,-0.625,-0.6169,-0.6169,-0.612,-0.6119,-0.6119]}]]